When you browse on this site, cookies collect data to enhance your experience and personalize the content and advertising you see.
Visit our Privacy Policy to learn more. By continuing to use the site, you agree to this use of cookies and data.
  • în România
  • Lista ţărilor
  • Pe 7 zile
  • Temperatura apei
  • Hartă satelitară
  • Meteo pe hartă
  • Widget-uri
  • user-avatar
    Intrare

    Meteo pe oră la Verhnee Chuevo

    Astăzi, 19 Februarie, Marţi

    Timp Temperatura Precipitaţii Vânt Presiune Umiditate
    00:00 -12°C° 0 mm 5 m/s 748 mmHg 84%
    01:00 -12°C° 0 mm 5 m/s 749 mmHg 85%
    02:00 -13°C° 0 mm 5 m/s 750 mmHg 86%
    03:00 -13°C° 0 mm 5 m/s 749 mmHg 87%
    04:00 -13°C° 0 mm 5 m/s 750 mmHg 88%
    05:00 -14°C° 0 mm 4 m/s 751 mmHg 89%
    06:00 -14°C° 0 mm 4 m/s 751 mmHg 90%
    07:00 -14°C° 0 mm 4 m/s 752 mmHg 90%
    08:00 -14°C° 0 mm 4 m/s 753 mmHg 90%
    09:00 -14°C° 0 mm 4 m/s 753 mmHg 89%
    10:00 -12°C° 0 mm 4 m/s 753 mmHg 88%
    11:00 -11°C° 0 mm 4 m/s 753 mmHg 86%
    12:00 -9°C° 0 mm 3 m/s 753 mmHg 84%
    13:00 -9°C° 0 mm 3 m/s 753 mmHg 85%
    14:00 -8°C° 0 mm 3 m/s 753 mmHg 85%
    15:00 -9°C° 0 mm 4 m/s 753 mmHg 85%
    16:00 -9°C° 0 mm 4 m/s 753 mmHg 86%
    17:00 -10°C° 0 mm 4 m/s 752 mmHg 88%
    18:00 -11°C° 0 mm 4 m/s 752 mmHg 89%
    19:00 -10°C° 0 mm 4 m/s 752 mmHg 89%
    20:00 -11°C° 0 mm 5 m/s 751 mmHg 89%
    21:00 -11°C° 0 mm 5 m/s 751 mmHg 90%
    22:00 -11°C° 0 mm 5 m/s 751 mmHg 90%
    23:00 -11°C° 0 mm 5 m/s 750 mmHg 90%

    Mâine, 20 Februarie, Miercuri

    Timp Temperatura Precipitaţii Vânt Presiune Umiditate
    00:00 -11°C° 0 mm 5 m/s 750 mmHg 90%
    01:00 -11°C° 0 mm 5 m/s 750 mmHg 90%
    02:00 -11°C° 0 mm 5 m/s 750 mmHg 90%
    03:00 -11°C° 0 mm 5 m/s 749 mmHg 90%
    04:00 -11°C° 0 mm 5 m/s 749 mmHg 90%
    05:00 -11°C° 0 mm 5 m/s 749 mmHg 89%
    06:00 -11°C° 0 mm 5 m/s 748 mmHg 88%
    07:00 -10°C° 0 mm 5 m/s 748 mmHg 87%
    08:00 -10°C° 0 mm 6 m/s 747 mmHg 86%
    09:00 -10°C° 0 mm 6 m/s 747 mmHg 86%
    10:00 -8°C° 0 mm 6 m/s 747 mmHg 84%
    11:00 -7°C° 0 mm 7 m/s 746 mmHg 82%
    12:00 -6°C° 0 mm 7 m/s 746 mmHg 80%
    13:00 -4°C° 0 mm 7 m/s 746 mmHg 80%
    14:00 -4°C° 0 mm 7 m/s 745 mmHg 80%
    15:00 -4°C° 0 mm 7 m/s 745 mmHg 80%
    16:00 -4°C° 0 mm 6 m/s 745 mmHg 82%
    17:00 -4°C° 0 mm 6 m/s 745 mmHg 85%
    18:00 -4°C° 0 mm 6 m/s 744 mmHg 88%
    19:00 -4°C° 0 mm 6 m/s 744 mmHg 89%
    20:00 -4°C° 0 mm 6 m/s 744 mmHg 90%
    21:00 -4°C° 0 mm 6 m/s 743 mmHg 91%
    22:00 -4°C° 0.1 mm 6 m/s 743 mmHg 92%
    23:00 -3°C° 0.1 mm 6 m/s 743 mmHg 92%

    Poimâine, 21 Februarie, Joi

    Timp Temperatura Precipitaţii Vânt Presiune Umiditate
    00:00 -3°C° 0.1 mm 6 m/s 742 mmHg 93%
    01:00 -3°C° 0.3 mm 6 m/s 742 mmHg 93%
    02:00 -2°C° 0.3 mm 5 m/s 742 mmHg 93%
    03:00 -2°C° 0.3 mm 5 m/s 741 mmHg 93%
    04:00 -2°C° 0.1 mm 5 m/s 741 mmHg 93%
    05:00 -2°C° 0.1 mm 5 m/s 740 mmHg 93%
    06:00 -2°C° 0.1 mm 4 m/s 740 mmHg 92%
    07:00 -2°C° 0 mm 5 m/s 740 mmHg 93%
    08:00 -2°C° 0 mm 5 m/s 739 mmHg 93%
    09:00 -4°C° 0 mm 6 m/s 739 mmHg 94%
    10:00 -3°C° 0.2 mm 6 m/s 739 mmHg 94%
    11:00 -3°C° 0.2 mm 6 m/s 738 mmHg 94%
    12:00 -2°C° 0.2 mm 6 m/s 738 mmHg 95%
    13:00 -3°C° 0.4 mm 6 m/s 738 mmHg 91%
    14:00 -3°C° 0.4 mm 6 m/s 738 mmHg 87%
    15:00 -4°C° 0.4 mm 6 m/s 737 mmHg 84%
    16:00 -5°C° 0 mm 5 m/s 738 mmHg 85%
    17:00 -5°C° 0 mm 4 m/s 738 mmHg 87%
    18:00 -7°C° 0 mm 4 m/s 738 mmHg 88%
    19:00 -8°C° 0 mm 4 m/s 738 mmHg 89%
    20:00 -8°C° 0 mm 4 m/s 738 mmHg 90%
    21:00 -8°C° 0 mm 5 m/s 738 mmHg 90%
    22:00 -8°C° 0 mm 5 m/s 738 mmHg 91%
    23:00 -8°C° 0 mm 5 m/s 738 mmHg 91%

    22 Februarie, Vineri

    Timp Temperatura Precipitaţii Vânt Presiune Umiditate
    00:00 -8°C° 0 mm 5 m/s 738 mmHg 91%
    01:00 -9°C° 0.1 mm 6 m/s 738 mmHg 91%
    02:00 -8°C° 0.1 mm 6 m/s 738 mmHg 91%
    03:00 -8°C° 0.1 mm 7 m/s 738 mmHg 90%
    04:00 -9°C° 0.1 mm 7 m/s 738 mmHg 89%
    05:00 -11°C° 0.1 mm 7 m/s 738 mmHg 89%
    06:00 -12°C° 0.1 mm 7 m/s 738 mmHg 88%
    07:00 -12°C° 0 mm 7 m/s 739 mmHg 87%
    08:00 -11°C° 0 mm 6 m/s 740 mmHg 87%
    09:00 -12°C° 0 mm 6 m/s 740 mmHg 87%
    10:00 -12°C° 0 mm 6 m/s 741 mmHg 85%
    11:00 -11°C° 0 mm 6 m/s 741 mmHg 84%
    12:00 -11°C° 0 mm 6 m/s 742 mmHg 83%
    13:00 -11°C° 0.1 mm 6 m/s 742 mmHg 82%
    14:00 -11°C° 0.1 mm 6 m/s 743 mmHg 82%
    15:00 -11°C° 0.1 mm 6 m/s 743 mmHg 81%
    16:00 -13°C° 0 mm 5 m/s 744 mmHg 83%
    17:00 -14°C° 0 mm 4 m/s 745 mmHg 85%
    18:00 -14°C° 0 mm 3 m/s 745 mmHg 87%
    19:00 -15°C° 0 mm 3 m/s 746 mmHg 89%
    20:00 -15°C° 0 mm 3 m/s 746 mmHg 90%
    21:00 -16°C° 0 mm 3 m/s 747 mmHg 92%
    22:00 -17°C° 0 mm 3 m/s 747 mmHg 93%
    23:00 -17°C° 0 mm 3 m/s 748 mmHg 94%

    23 Februarie, Sâmbătă

    Timp Temperatura Precipitaţii Vânt Presiune Umiditate
    00:00 -17°C° 0 mm 2 m/s 748 mmHg 95%
    01:00 -17°C° 0 mm 2 m/s 749 mmHg 95%
    02:00 -17°C° 0 mm 2 m/s 749 mmHg 95%
    03:00 -17°C° 0 mm 2 m/s 750 mmHg 96%
    04:00 -17°C° 0 mm 2 m/s 750 mmHg 96%
    05:00 -16°C° 0 mm 1 m/s 750 mmHg 96%
    06:00 -16°C° 0 mm 1 m/s 751 mmHg 96%
    07:00 -15°C° 0 mm 1 m/s 751 mmHg 95%
    08:00 -15°C° 0 mm 1 m/s 752 mmHg 95%
    09:00 -14°C° 0 mm 1 m/s 752 mmHg 94%
    10:00 -13°C° 0 mm 1 m/s 753 mmHg 92%
    11:00 -12°C° 0 mm 1 m/s 753 mmHg 90%
    12:00 -11°C° 0 mm 1 m/s 753 mmHg 88%
    13:00 -11°C° 0 mm 1 m/s 753 mmHg 87%
    14:00 -10°C° 0 mm 1 m/s 754 mmHg 87%
    15:00 -10°C° 0 mm 1 m/s 754 mmHg 86%
    16:00 -11°C° 0 mm 1 m/s 754 mmHg 88%
    17:00 -11°C° 0 mm 1 m/s 754 mmHg 89%
    18:00 -12°C° 0 mm 1 m/s 755 mmHg 91%
    19:00 -13°C° 0 mm 1 m/s 755 mmHg 92%
    20:00 -13°C° 0 mm 1 m/s 755 mmHg 92%
    21:00 -14°C° 0 mm 1 m/s 755 mmHg 93%
    22:00 -14°C° 0 mm 1 m/s 755 mmHg 93%
    23:00 -14°C° 0 mm 1 m/s 755 mmHg 94%

    24 Februarie, Duminică

    Timp Temperatura Precipitaţii Vânt Presiune Umiditate
    00:00 -13°C° 0 mm 1 m/s 755 mmHg 94%
    01:00 -13°C° 0 mm 1 m/s 755 mmHg 94%
    02:00 -15°C° 0 mm 2 m/s 756 mmHg 95%
    03:00 -15°C° 0 mm 2 m/s 756 mmHg 95%
    04:00 -15°C° 0 mm 2 m/s 756 mmHg 96%
    05:00 -17°C° 0 mm 3 m/s 756 mmHg 96%
    06:00 -17°C° 0 mm 3 m/s 756 mmHg 96%
    07:00 -16°C° 0 mm 3 m/s 756 mmHg 96%
    08:00 -16°C° 0 mm 4 m/s 756 mmHg 95%
    09:00 -16°C° 0 mm 4 m/s 756 mmHg 95%
    10:00 -15°C° 0.1 mm 4 m/s 756 mmHg 95%
    11:00 -14°C° 0.1 mm 4 m/s 756 mmHg 94%
    12:00 -13°C° 0.1 mm 5 m/s 756 mmHg 94%
    13:00 -13°C° 0.3 mm 5 m/s 756 mmHg 94%
    14:00 -12°C° 0.3 mm 5 m/s 756 mmHg 93%
    15:00 -12°C° 0.3 mm 5 m/s 755 mmHg 93%
    16:00 -11°C° 0.3 mm 5 m/s 755 mmHg 94%
    17:00 -10°C° 0.3 mm 4 m/s 755 mmHg 94%
    18:00 -10°C° 0.3 mm 4 m/s 755 mmHg 94%
    19:00 -9°C° 0.3 mm 4 m/s 755 mmHg 94%
    20:00 -9°C° 0.3 mm 4 m/s 756 mmHg 95%
    21:00 -8°C° 0.3 mm 4 m/s 756 mmHg 95%
    22:00 -8°C° 0.2 mm 4 m/s 756 mmHg 95%
    23:00 -8°C° 0.2 mm 4 m/s 756 mmHg 95%
    Arată mai mult